CW9688 Weather Reports


time (UTC)temp
C
wind
direction
speed
KPH
gust
KPH
rain 1hr
cm
rain 24hr
cm
rain mn
cm
humidity
%
barometer
mb
20260831231804 30 146 11.3 19.3 0.00 0.00 0.00 27 1013.5
20260831230303 28 112 6.4 14.5 0.00 0.00 0.00 27 1013.5
20260831225306 30 126 8.0 14.5 0.00 0.00 0.00 28 1013.5
20260831224804 29 156 3.2 19.3 0.00 0.00 0.00 31 1013.5
20260831223304 28 102 11.3 19.3 0.00 0.00 0.00 29 1013.5
20260831222306 28 79 11.3 20.9 0.00 0.00 0.00 29 1013.5
20260831220804 28 42 4.8 14.5 0.00 0.00 0.00 31 1013.5
20260831215804 28 147 3.2 9.7 0.00 0.00 0.00 30 1013.5
20260831215306 28 46 6.4 11.3 0.00 0.00 0.00 30 1013.5
20260831213804 27 35 8.0 16.1 0.00 0.00 0.00 33 1013.5
20260831213304 27 37 4.8 9.7 0.00 0.00 0.00 31 1013.5
20260831212306 27 59 3.2 11.3 0.00 0.00 0.00 32 1013.5
20260831211304 27 107 4.8 9.7 0.00 0.00 0.00 34 1013.5
20260831210804 27 55 6.4 11.3 0.00 0.00 0.00 34 1013.5
20260831210304 27 50 6.4 11.3 0.00 0.00 0.00 37 1013.5
20260831205803 27 59 6.4 12.9 0.00 0.00 0.00 35 1013.5
20260831205305 27 37 6.4 9.7 0.00 0.00 0.00 36 1013.5
20260831204804 27 44 6.4 9.7 0.00 0.00 0.00 34 1013.5
20260831201804 27 125 4.8 11.3 0.00 0.05 0.00 34 1013.5
20260831200303 27 75 4.8 11.3 0.00 0.05 0.00 35 1013.5
20260831195804 27 131 4.8 11.3 0.00 0.05 0.00 34 1013.5
20260831195306 27 59 3.2 9.7 0.00 0.05 0.00 36 1013.5
20260831194804 27 88 1.6 8.0 0.00 0.05 0.00 36 1013.5
20260831193803 26 140 1.6 4.8 0.00 0.05 0.00 33 1013.5
20260831192803 26 142 3.2 8.0 0.00 0.05 0.00 36 1013.5
20260831191304 26 189 0.0 4.8 0.00 0.05 0.00 36 1013.5
20260831185804 26 100 3.2 9.7 0.00 0.05 0.00 37 1013.5
20260831184804 26 126 0.0 3.2 0.00 0.05 0.00 37 1013.5
20260831184304 26 304 0.0 1.6 0.00 0.05 0.00 37 1013.5
20260831183304 26 201 0.0 1.6 0.00 0.05 0.00 35 1013.5
20260831182803 25 201 1.6 3.2 0.00 0.05 0.00 35 1013.5
20260831181804 25 150 0.0 4.8 0.00 0.05 0.00 36 1013.5
20260831180303 25 111 1.6 4.8 0.00 0.05 0.00 39 1013.5
20260831175803 25 147 0.0 1.6 0.00 0.05 0.00 39 1013.5
20260831174803 24 83 0.0 4.8 0.00 0.05 0.00 42 1013.5
20260831174304 24 112 1.6 8.0 0.00 0.05 0.00 38 1013.5
20260831173803 25 140 1.6 4.8 0.00 0.05 0.00 41 1013.5
20260831171803 24 95 4.8 9.7 0.00 0.05 0.00 43 1013.5
20260831164304 25 105 8.0 11.3 0.00 0.05 0.00 47 1013.5
20260831163804 25 78 6.4 11.3 0.00 0.05 0.00 42 1013.5
20260831163304 25 132 1.6 9.7 0.00 0.05 0.00 39 1013.5
20260831162803 24 34 4.8 8.0 0.00 0.05 0.00 40 1013.5
20260831161804 25 314 1.6 4.8 0.00 0.05 0.00 43 1013.5
20260831161304 25 262 0.0 4.8 0.00 0.05 0.00 38 1013.5
20260831160804 25 263 4.8 4.8 0.00 0.05 0.00 38 1013.5
20260831154804 23 315 1.6 4.8 0.00 0.05 0.00 48 1013.5
20260831154304 23 301 1.6 4.8 0.00 0.05 0.00 47 1013.5
20260831153804 23 41 3.2 4.8 0.00 0.05 0.00 48 1013.5
20260831152804 23 355 3.2 4.8 0.00 0.05 0.00 50 1013.5
20260831151805 23 92 1.6 3.2 0.00 0.05 0.00 53 1013.5
20260831151304 23 132 0.0 4.8 0.00 0.05 0.00 46 1013.5
20260831150804 22 192 3.2 4.8 0.00 0.05 0.00 47 1013.5
20260831145803 22 231 1.6 4.8 0.00 0.05 0.00 52 1013.5
20260831144304 21 194 3.2 4.8 0.00 0.05 0.00 54 1013.5
20260831143305 20 210 3.2 4.8 0.00 0.05 0.00 57 1013.5
20260831142805 20 356 0.0 1.6 0.00 0.05 0.00 60 1013.5
20260831141805 20 355 1.6 3.2 0.00 0.05 0.00 60 1013.5
20260831141305 20 355 3.2 4.8 0.00 0.05 0.00 62 1013.5
20260831135805 19 207 0.0 3.2 0.00 0.05 0.00 62 1013.5
20260831135306 19 207 3.2 4.8 0.00 0.05 0.00 62 1013.5
20260831134804 18 202 3.2 4.8 0.00 0.05 0.00 62 1013.5
20260831134305 18 166 0.0 3.2 0.00 0.05 0.00 63 1013.5
20260831133804 18 203 3.2 4.8 0.00 0.05 0.00 64 1013.5
20260831132306 17 162 3.2 3.2 0.00 0.05 0.00 70 1013.5
20260831130805 16 162 0.0 1.6 0.00 0.05 0.00 71 1013.5
20260831125306 16 221 1.6 3.2 0.00 0.05 0.00 72 1013.5
20260831124305 16 221 0.0 3.2 0.00 0.05 0.00 72 1013.5
20260831123805 16 221 1.6 3.2 0.00 0.05 0.00 72 1013.5
20260831121305 16 5 0.0 0.0 0.00 0.05 0.00 72 1013.5
20260831120306 16 5 0.0 4.8 0.00 0.05 0.00 72 1013.5
20260831115804 16 336 0.0 3.2 0.00 0.05 0.00 72 1013.5
20260831115306 16 336 3.2 4.8 0.00 0.05 0.00 71 1013.5
20260831114804 16 225 1.6 4.8 0.00 0.05 0.00 69 1013.5
20260831114305 16 225 3.2 4.8 0.00 0.05 0.00 70 1013.5
20260831112307 17 225 0.0 3.2 0.00 0.05 0.00 67 1013.5
20260831111804 17 225 1.6 3.2 0.00 0.05 0.00 66 1013.5
20260831111305 17 225 1.6 3.2 0.00 0.05 0.00 65 1013.5
20260831110305 17 207 1.6 4.8 0.00 0.05 0.00 64 1013.5
20260831105804 17 205 3.2 8.0 0.00 0.05 0.00 64 1013.5
20260831104805 17 228 3.2 8.0 0.00 0.05 0.00 63 1013.5
20260831103305 17 206 1.6 4.8 0.00 0.05 0.00 63 1013.5
20260831101804 16 218 1.6 4.8 0.00 0.05 0.00 69 1013.5
20260831101306 16 220 1.6 4.8 0.00 0.05 0.00 69 1013.5
20260831100805 17 202 3.2 4.8 0.00 0.05 0.00 69 1013.5
20260831100305 16 199 1.6 8.0 0.00 0.05 0.00 69 1013.5
20260831094805 16 208 0.0 1.6 0.00 0.05 0.00 72 1013.5
20260831093305 17 198 1.6 4.8 0.00 0.05 0.00 71 1013.5
20260831092804 17 198 1.6 3.2 0.00 0.05 0.00 71 1013.5
20260831092306 16 198 1.6 3.2 0.00 0.05 0.00 70 1013.5
20260831090304 17 146 1.6 3.2 0.00 0.05 0.00 69 1013.5
20260831085306 17 146 0.0 1.6 0.00 0.05 0.00 68 1013.5
20260831084304 17 146 0.0 3.2 0.00 0.05 0.00 67 1013.5
20260831083804 17 146 0.0 3.2 0.00 0.05 0.00 67 1013.5
20260831082306 16 146 0.0 0.0 0.00 0.05 0.00 69 1013.5
20260831081305 17 146 0.0 3.2 0.00 0.05 0.00 65 1013.5
20260831080305 17 146 1.6 3.2 0.00 0.05 0.00 64 1013.5
20260831073305 17 221 1.6 3.2 0.00 0.05 0.00 61 1013.5
20260831072805 17 191 1.6 1.6 0.00 0.05 0.00 61 1013.5
20260831071805 18 191 0.0 1.6 0.00 0.05 0.00 58 1013.5
20260831071306 18 191 1.6 3.2 0.00 0.05 0.00 58 1013.5
20260831070804 18 191 1.6 3.2 0.00 0.05 0.00 57 1013.5
20260831070305 18 191 1.6 3.2 0.00 0.05 0.00 56 1013.5
20260831065805 18 311 1.6 3.2 0.00 0.05 0.00 56 1013.5
20260831064305 18 263 1.6 4.8 0.00 0.05 0.00 56 1013.5
20260831062306 20 275 1.6 4.8 0.00 0.05 0.00 51 1013.5
20260831061805 20 192 1.6 4.8 0.00 0.05 0.00 49 1013.5
20260831054805 21 238 4.8 11.3 0.00 0.05 0.05 45 1013.5
20260831054304 21 249 8.0 11.3 0.00 0.05 0.05 45 1013.5
20260831051305 21 277 9.7 16.1 0.00 0.05 0.05 52 1013.5
20260831045804 20 297 6.4 12.9 0.00 0.05 0.05 66 1013.5
20260831045306 20 300 4.8 16.1 0.00 0.05 0.05 66 1013.5
20260831044805 20 252 8.0 12.9 0.00 0.05 0.05 66 1013.5
20260831044305 19 274 4.8 11.3 0.00 0.05 0.05 67 1013.5
20260831043804 19 317 4.8 8.0 0.00 0.05 0.05 69 1013.5
20260831043305 19 216 1.6 3.2 0.00 0.05 0.05 68 1013.5
20260831042805 19 216 0.0 3.2 0.00 0.05 0.05 68 1013.5
20260831042307 20 216 1.6 3.2 0.00 0.05 0.05 67 1013.5
20260831041805 20 216 1.6 3.2 0.00 0.05 0.05 66 1013.5
20260831040805 20 203 3.2 8.0 0.00 0.05 0.05 64 1013.5
20260831040305 20 173 4.8 9.7 0.00 0.05 0.05 64 1013.5
20260831035804 20 181 4.8 11.3 0.00 0.05 0.05 64 1013.5
20260831034305 20 184 6.4 12.9 0.00 0.05 0.05 64 1013.5
20260831033804 20 185 8.0 11.3 0.00 0.05 0.05 64 1013.5
20260831033305 19 184 4.8 8.0 0.00 0.05 0.05 65 1013.5
20260831032306 18 213 3.2 4.8 0.00 0.05 0.05 66 1013.5
20260831030805 18 213 1.6 3.2 0.00 0.05 0.05 65 1013.5
20260831025805 19 249 3.2 4.8 0.00 0.05 0.05 63 1013.5
20260831025306 20 200 1.6 8.0 0.00 0.05 0.05 61 1013.5
20260831024305 20 210 3.2 8.0 0.00 0.05 0.05 61 1013.5
20260831022805 19 222 3.2 4.8 0.00 0.05 0.05 62 1013.5
20260831022306 19 212 3.2 4.8 0.00 0.05 0.05 64 1013.5
20260831021804 19 252 1.6 4.8 0.00 0.05 0.05 64 1011.6
20260831020804 19 179 1.6 4.8 0.00 0.05 0.05 64 1011.6
20260831020305 19 179 1.6 3.2 0.00 0.05 0.05 64 1011.6
20260831015805 19 179 1.6 3.2 0.00 0.05 0.05 64 1011.6
20260831014804 20 179 0.0 3.2 0.00 0.05 0.05 61 1011.6
20260831013305 20 144 1.6 3.2 0.00 0.05 0.05 61 1011.6
20260831012306 21 144 3.2 4.8 0.00 0.05 0.05 59 1011.6
20260831011305 21 160 4.8 8.0 0.00 0.05 0.05 57 1011.6
20260831010804 21 178 1.6 8.0 0.00 0.05 0.05 58 1011.6
20260831010306 21 178 6.4 9.7 0.00 0.05 0.05 57 1011.6
20260831005306 22 165 8.0 11.3 0.00 0.05 0.05 56 1011.6
20260831004804 22 183 6.4 12.9 0.00 0.05 0.05 54 1011.6
20260831003805 22 155 4.8 11.3 0.00 0.05 0.05 52 1011.6
20260831003305 22 173 8.0 16.1 0.00 0.05 0.05 51 1011.6
20260831002805 22 189 6.4 12.9 0.00 0.05 0.05 50 1011.6
20260831000305 23 153 3.2 9.7 0.00 0.05 0.05 47 1011.6
20260830234804 23 146 8.0 11.3 0.00 0.05 0.05 49 1011.6
20260830234305 23 125 3.2 9.7 0.00 0.05 0.05 48 1011.6
20260830233805 23 140 3.2 8.0 0.00 0.05 0.05 49 1011.6
20260830233305 23 140 1.6 3.2 0.00 0.05 0.05 48 1011.6